Погода в Львове

Поиск расширенной информации на нашем сайте:

Полезная информация:

Новости сайта



02.01.2020
Опубликован Долгосрочный прогноз погоды по городам России и ближнего зарубежья на январь 2020 года.
Карты: Прогноз на январь и февраль 2020 года, Сравнение прогнозируемой аномалии приземной температуры воздуха на январь 2020 года по разным моделям.




Погода в Львове - сегодня

Время (UTC), дата Ветер
(°,м/с) 
Видим.   Явления Облачность Т
(°С)
Тd
(°С)
f(%) Тe
(°С)
Pmin
(гПа)
dP
(гПа)
Po
(мм)
O2
(г/м3)
Тmin Tmax R s Состояние
почвы
09 04.06.20 200 (Ю) 10 км    6/6 800 м 
[Cu hum]
+15 +8.6 66 +15  1003  -0.1  724  275           
12 04.06.20 200 (Ю) 10 км    9/9 1000 м 
[Cu med, cong]
+17.6 +10 61 +20  1001.6  -1  723  272           
15 04.06.20 230 (ЮЗ) 10 км  {ливн. осадки}  9/4 1000 м кучево-дожд. 
[Cb calv]
+18 +10.3 61 +20  1001  -0.5  723  271           
18 04.06.20 170 (Ю) 10 км  {ливн. осадки}  8/8 1000 м кучево-дожд. 
[Cb calv]
+14.9 +11.3 79 +19  1001.2  -0.3  723  274    +18.7  0.5     
21 04.06.20 150 (ЮВ) 10 км    8/0 средняя 
[Ac trans]
+12 +11.1 94 +15  1001.6  723  277           
00 05.06.20 150 (ЮВ) 10 км    10/0 средняя 
[Ac As]
+12.1 +11 93 +15  1000.9  -0.5  722  277           
03 05.06.20 180 (Ю) 10 км  {ливн. осадки}  9/4 1000 м кучево-дожд., средняя 
[Cb calv|Ac trans]
+14.4 +12.2 87 +19  999.9  -0.7  722  274           
06 05.06.20 180 (Ю) 10 км  в посл. час ливневой дождь  8/4 1000 м кучево-дожд., средняя 
[Cb calv|Ac trans]
+17 +14.1 83 +25  1000.3  0.7  722  271  +11.2    0.4     
09 05.06.20 190 (Ю) 10 км  слаб. ливневой дождь  8/4 1000 м кучево-дожд., средняя 
[Cb calv|Ac trans]
+18.7 +13.3 71 +26  1001.4  1.3  723  270           
12 05.06.20 220 (ЮЗ) 10 км  {ливн. осадки}  4/4 1000 м 
[Cu hum]
+22.5 +11.6 50 +27  1001.1  0.1  724  267      0.0     
15 05.06.20 200 (Ю) 10 км    9/0 средняя 
[Ac trans]
+22.7 +11.7 50 +27  1001.1  0.1  724  267           
18 05.06.20 160 (Ю) 10 км    9/0 средняя 
[Ac trans]
+18.7 +12.4 67 +25  1002.7  724  271    +23.8  0.0     
21 05.06.20 160 (Ю) 10 км    10/0 средняя 
[Ac As]
+17 +11.8 71 +21  1003.5  0.6  725  273           
00 06.06.20 190 (Ю) 10 км    10/0 средняя 
[Ac As]
+17.9 +12.4 70 +23  1003.9  0.5  725  272           
03 06.06.20 170 (Ю) 10 км    9/0 средняя 
[Ac trans]
+15.1 +13.5 90 +23  1006.3  727  275           
06 06.06.20 230 (ЮЗ) 10 км    8/0 средняя 
[Ac trans]
+18.6 +14.9 79 +29  1007.9  728  272  +14.5         
09 06.06.20 190 (Ю) 10 км    8/8 720 м кучево-дожд. 
[Cb calv]
+19.7 +15 74 +30  1009.2  1.3  729  271           
12 06.06.20 220 (ЮЗ) 10 км    8/3 600 м кучево-дожд., средняя 
[Cb calv|Ac trans]
+21.7 +15 66 +31  1009.2  0.3  729  269           
15 06.06.20 210 (ЮЗ) 10 км    6/3 1000 м средняя 
[Sc|Ac trans]
+23.6 +14.6 57 +32  1008.3  -0.7  729  267           
18 06.06.20 тихо ()   10 км  в посл. час гроза  9/9 1200 м кучево-дожд. 
[Cb calv]
+21.2 +16.7 76 +34  1008.9  0.4  729  269    +24.1       
21 06.06.20 130 (ЮВ) 10 км    9/0 средняя 
[Ac trans]
+18.6 +15.1 80 +30  1009.5  0.2  729  272           
00 07.06.20 130 (ЮВ) 10 км    8/0 средняя 
[Ac trans]
+19.6 +14.7 73 +30  1008.8  -0.6  729  271           
03 07.06.20 тихо ()   10 км    9/4 1000 м кучево-дожд., средняя 
[Cb calv|Ac trans]
+15.2 +13.6 90 +22  1009.5  0.1  729  275           
06 07.06.20 160 (Ю) 10 км    9/3 1000 м кучево-дожд., средняя 
[Cb calv|Ac trans]
+19.7 +15.1 75 +31  1009  0.2  729  271  +14.5         
09 07.06.20 170 (Ю) 10 км    6/0 средняя 
[Ac trans]
+24.3 +17 64 +38  1008.5  729  266           
Время (UTC), дата Ветер
(°,м/с) 
Видим.   Явления Облачность Т
(°С)
Тd
(°С)
f(%) Тe
(°С)
Pmin
(гПа)
dP
(гПа)
Po
(мм)
O2
(г/м3)
Тmin Tmax R s Состояние
почвы

Для получения пояснительной информации подведите курсор к названию столбца.

ПОГОДА в Львове - архив

Всё, что Вы хотите узнать о погоде в Львове - удобно и подробно!

Выберите нужную дату (начиная с 1 января 2019* года) и нажмите кнопку "Найти".
Будут отображены архивные сводки погоды по пункту Львов, начиная с указанной даты.


Отображать данные в формате CSV (для использования в таблицах Excel)


Внимание! Наш архив погоды предназначен исключительно для личного некоммерческого использования в познавательных целях. Если Вам необходимы официальные справки о состоянии погоды (для производственных, юридических, коммерческих и т.п. целей), обращайтесь в органы Росгидромета.

*Примечание: данная дата относится к архиву по метеостанциям СССР (Россия, СНГ, Балтия).
Архив по метеостанциям Зарубежной Европы и Азии (кроме Китая) хранится 10 дней, по другим регионам земного шара (Китай, Африка, Америка, Австралия, Океания) - 1 день.

Львов - район местоположения метеостанции


Название, широта, долгота, высота метеостанции:
Львов 49.8°ш. 23.9°д. 323 м над ур. моря [Украина]

Дополнительная информация

В oтличие oт бoльшинства пoгoдных сайтoв мы публикуем пoдрoбную метеoинфoрмацию в детальнoм прoфессиoнальнoм фoрмате.

Характеристики температуры и влажнoсти вoздуха измеряются на высoте 2 м в тени вдали oт зданий и деревьев.
Скoрoсть ветра измеряется на высoте 10 м (на урoвне рoста челoвека скoрoсть ветра ниже в 1.5-2 раза). Если метеoстанция нахoдится в гoрoде или в лесу, тo скoрoсть ветра занижена на 2-4 м/с пo сравнению с oткрытым местoм. Скoрoсть ветра над акватoриями крупных рек и oзёр, а также на вершинах хoлмoв на 2-5 м/с выше, чем в oбычных услoвиях.
Атмoсфернoе давление в разных тoчках местнoсти мoжет значительнo oтличаться oт давления на метеoстанции, в зависимoсти oт услoвий рельефа (при пoдъёме на 10 м давление пoнижается примернo на 1 мм рт.ст.).